Tracking 30692 objects as of 16-Jun-2025
HD Live streaming from Space Station
objects crossing your sky now

CZ-3C DEB

Track CZ-3C DEB now!


NORAD ID: 40853
Int'l Code: 2012-008T
Perigee: 739.8 km
Apogee: 35,297.8 km
Inclination: 20.3 °
Period: 631.8 minutes
Semi major axis: 24389 km
RCS: Unknown
Launch date: February 24, 2012
Source: People's Republic of China (PRC)
Launch site: Xichang Space Center, China (XSC)

Note: This is SATELLITE DEBRIS
Your satellite tracking list
Your tracking list is empty




NASA's NSSDC Master Catalog

Two Line Element Set (TLE):
1 40853U 12008T   25165.36289777  .00000004  00000-0 -51598-3 0  9995
2 40853  20.3342 169.4995 7084517 285.7159  11.5395  2.27924038 89466
Source of the keplerian elements: AFSPC